Regional Weather Roundup
Issued by NWS

Home | Current Version | Previous Version | Text Only | Print | Product List | Glossary Off
Versions: 1 2 3 4 5 6 7 8 9 10 11 12 13 14 15 16 17 18 19 20 21 22 23 24 25 26 27

000
ASUS45 KBOU 282010
RWRCO

WEATHER ROUNDUP FOR COLORADO
NATIONAL WEATHER SERVICE DENVER/BOULDER CO
200 PM MDT WED SEP 28 2016

NOTE: "FAIR" INDICATES FEW OR NO CLOUDS BELOW 12000 FEET WITH NO
SIGNIFICANT WEATHER AND/OR OBSTRUCTIONS TO VISIBILITY.

COZ001>005-013-030-031-282100-
...NORTHWEST COLORADO...

CITY           SKY/WX    TMP DP  RH WIND       PRES   REMARKS
CRAIG          FAIR      78  31  17 SW5       30.29F
HAYDEN         FAIR      77  30  18 W9        30.30F
MEEKER         FAIR      77  37  23 SW6       30.28F
MOUNT WERNER   NOT AVBL
STEAMBOAT SPGS FAIR      74  29  18 W5        30.30F
WALDEN           N/A     72  21  15 SW3       30.43F
$$

COZ006>008-011-282100-
...WEST CENTRAL VALLEYS...

CITY           SKY/WX    TMP DP  RH WIND       PRES   REMARKS
GRAND JUNCTION FAIR      80  35  19 W5        30.19F
MONTROSE       FAIR      76  37  24 N9        30.25F
EAGLE          SUNNY     75  30  19 CALM      30.32F
RIFLE          FAIR      78  34  20 VRB6      30.23F
DELTA          NOT AVBL
NUCLA          FAIR      79  32  18 N8        30.30F
$$

COZ017>023-064>068-282100-
...SOUTHWEST COLORADO...

CITY           SKY/WX    TMP DP  RH WIND       PRES   REMARKS
DURANGO        FAIR      76  29  17 SE13G21   30.34F
CORTEZ         FAIR      81  36  19 S13G23    30.27F
PAGOSA SPRINGS FAIR      73  19  13 CALM      30.40F
TELLURIDE      FAIR      67  26  20 SW6G22    30.48F
WOLF CREEK PAS PTSUNNY   52  28  40 SW9G17    30.71S
$$

COZ009-010-012-014-032>034-037-058>063-282100-
...CENTRAL COLORADO...

CITY           SKY/WX    TMP DP  RH WIND       PRES   REMARKS
ASPEN          FAIR      73  27  18 SE6       30.36F
BUENA VISTA    FAIR      73  20  14 S7        30.43F
COPPER MTN     FAIR      61  19  20 SE18G25   30.68F
BERTHOUD PASS  FAIR      46  32  57 E23G38    30.73F
COTTONWOOD PAS FAIR      70  16  12 E14G23    30.56F
GUNNISON       FAIR      74  25  16 SE14G24   30.36F
KREMMLING      FAIR      77  18  10 NW3       30.37F
LEADVILLE      FAIR      64  17  16 SW17      30.53F
SALIDA         FAIR      76  22  13 E13G20    30.47F
SUNLIGHT       PTSUNNY   59  32  36 CALM      30.63S
WILKERSON PASS FAIR      57  19  23 SE6       30.70F
$$

COZ069>075-282100-
...SAN LUIS VALLEY/SANGRE DE CRISTO MOUNTAINS...

CITY           SKY/WX    TMP DP  RH WIND       PRES   REMARKS
ALAMOSA        FAIR      74  27  17 VRB6      30.40F
LA VETA PASS   FAIR      63  28  27 MISG      30.60S
SAGUACHE       NOT AVBL
$$

COZ035-036-038>040-282100-
...NORTHERN COLORADO FRONT RANGE...

CITY           SKY/WX    TMP DP  RH WIND       PRES   REMARKS
DENVER INTL AP FAIR      81  27  14 E9        30.31F
DMNS CITY PARK   N/A     80  29  15 E3        30.30F
AURORA         MOSUNNY   80  29  15 E8        30.32F
FRONT RANGE AP MOSUNNY   81  27  13 E14G20    30.33F
ERIE MUNI ARPT FAIR      80  25  13 E3        30.30F
BOULDER MUN AP FAIR      77  30  18 N5        30.31F
CENTENNIAL     FAIR      78  30  17 NE6       30.33F
BROOMFIELD     MOSUNNY   77  28  16 NE7       30.34F
FORT COLLINS   FAIR      79  37  22 SE8       30.28F
LONGMONT       FAIR      81  33  17 E5        30.32F
$$

COZ041-046-047-076>085-087-088-282100-
...PIKES PEAK/PALMER DIVIDE AND SOUTHERN FOOTHILLS...

CITY           SKY/WX    TMP DP  RH WIND       PRES   REMARKS
COLO. SPRINGS  FAIR      79  25  13 S9G21     30.36F
A. F. ACADEMY  FAIR      77  25  14 SE14      30.36F
SCHRIEVER AFB  NOT AVBL
ELLICOTT       NOT AVBL
FALCON         FAIR      76  23  13 S12G23    30.41F
FORT CARSON    SUNNY     79  27  14 E8        30.33F
LIMON          FAIR      80  30  16 E12       30.32F
MONUMENT HILL  FAIR      73  27  17 S5        30.41F
TRINIDAD       FAIR      80  26  13 SE7G18    30.33F
$$

COZ042>045-048>051-090-091-282100-
...NORTHEAST COLORADO...

CITY           SKY/WX    TMP DP  RH WIND       PRES   REMARKS
GREELEY ARPT   FAIR      79  36  21 SE6       30.30F
AKRON          FAIR      78  36  21 VRB6      30.29F
BURLINGTON     FAIR      82  35  18 VRB6      30.26F
WRAY           NOT AVBL
STERLING       FAIR      81  43  26 NE9       30.26F
HOLYOKE        FAIR      84  36  17 NE9G16    30.25F
FORT MORGAN    FAIR      82  32  16 E5        30.30F
$$

COZ086-089-092>099-282100-
...SOUTHEAST COLORADO...

CITY           SKY/WX    TMP DP  RH WIND       PRES   REMARKS
PUEBLO         FAIR      83  34  17 SE9       30.26F
LA JUNTA       FAIR      84  37  18 E3        30.24F
LAMAR          FAIR      86  36  16 E10       30.21F
SPRINGFIELD      N/A     83  34  17 MISG      30.24
$$




USA.gov is the U.S. government's official web portal to all federal, state and local government web resources and services.